Strona główna
METAR-TAF:

METAR-TAF

Lotnisko :

Rugby, Dakota Północna, Stany Zjednoczone

Szerokość geograficzna: 48-23-25N, Długość geograficzna: 100-01-27W, wysokość: 472 m

Aktualna obserwacja pogody

Raport powstał 10 minut temu, godzina 11:35 UTC
Wiatr 7 kt od zachód
Temperatura -30°C
Wilgotność 82%
Ciśnienie 1022 hPa
Widzialność: 16.1 km
bezchmurnie

METAR: KRUG 101135Z AUTO 27007KT 10SM CLR M30/M32 A3018 RMK AO2

czas: 05:45 (11:45 UTC)


TAF: brakujący

Obserwacja i prognoza pogody dla ponad 4000 lotnisk (raport METAR i TAF).

Dostępne stacje oznaczono żółtymi i czerwonymi punktami na mapie.

Najedź kursorem aby zobaczyć nazwę stacji.

Kliknij aby zobaczyć obserwacje i prognozy pogody.

Aby zmienić mapę: kliknij na zielony przycisk z czarnym krzyżykiem, aby powiększyć; na zielony przycisk z myślnikiem, aby pomniejszyć; na zielone strzałki, aby przejść do map sąsiednich.


METAR-TAF: